Time_in_sec,Mx,My,Mz
1314361943.51669240,0.48759514,0.38965780,-1.62020886
1314361943.56945848,0.48910627,0.39397457,-1.62175941
1314361943.61724806,0.48933643,0.39038053,-1.61837518
1314361943.66949725,0.48847604,0.39229935,-1.61884034
1314361943.71660972,0.48723620,0.39130089,-1.61917162
1314361943.76867008,0.48754132,0.39243278,-1.61849368
1314361943.81746578,0.48800427,0.38988230,-1.61791301
1314361943.86853909,0.48866346,0.39304879,-1.61789870
1314361943.91729712,0.48654079,0.39067703,-1.61947441
1314361943.96952724,0.48927709,0.39482939,-1.61881316
1314361944.02067256,0.48741937,0.38850117,-1.61873889
1314361944.06947684,0.48796391,0.39090431,-1.61845803
1314361944.11753964,0.48835272,0.38961124,-1.61668706
1314361944.16965604,0.48806918,0.39392701,-1.61633432
1314361944.20946360,0.48776349,0.39281982,-1.61928642
1314361944.26966000,0.48818254,0.38974598,-1.61723292
1314361944.31667781,0.48670748,0.39001119,-1.61678457
1314361944.36949325,0.48809180,0.39305979,-1.61833298
1314361944.41764522,0.48784781,0.39037016,-1.61591911
1314361944.46859932,0.48834047,0.39428005,-1.61404741
1314361944.50951123,0.48586777,0.39038002,-1.61482918
1314361944.56865954,0.48946884,0.39098912,-1.61609817
1314361944.61950135,0.48747465,0.39074811,-1.61527467
1314361944.66860604,0.48569053,0.39140362,-1.61538208
1314361944.71749830,0.48640162,0.39306337,-1.61695874
1314361944.76851463,0.48783547,0.39402470,-1.61340570
1314361944.81746960,0.48710859,0.39125150,-1.61449683
1314361944.86945748,0.48791969,0.39251176,-1.61445963
1314361944.91746330,0.48649803,0.39010426,-1.61345327
1314361944.96850777,0.48725986,0.39555788,-1.61371779
1314361945.02148867,0.48691878,0.39187253,-1.61304092
1314361945.06863856,0.48746929,0.39249954,-1.61288023
1314361945.11660910,0.48533303,0.38985220,-1.61244822
1314361945.16947842,0.48665985,0.39506713,-1.61468494
1314361945.21660519,0.48837963,0.39034221,-1.61388195
1314361945.26947832,0.48587805,0.39121634,-1.61001933
1314361945.30960536,0.48519930,0.39150140,-1.61220074
1314361945.36862993,0.48589265,0.39136493,-1.61202610
1314361945.41746688,0.48437166,0.39136076,-1.61010695
1314361945.47073007,0.48608327,0.39477628,-1.61070299
1314361945.51663280,0.48777425,0.39160287,-1.61245477
1314361945.56949210,0.48727900,0.39220858,-1.60927737
1314361945.61657596,0.48519567,0.38894176,-1.61030912
1314361945.66946483,0.48606104,0.39452696,-1.61110365
1314361945.70946765,0.48668814,0.39260358,-1.60998309
1314361945.76962900,0.48588207,0.39070842,-1.61001527
1314361945.80955958,0.48566294,0.39095473,-1.60909343
1314361945.87058520,0.48703861,0.39207858,-1.60875523
1314361945.91662121,0.48577210,0.39144099,-1.60721803
1314361945.96946907,0.48677668,0.39565408,-1.61040211
1314361946.01662183,0.48563668,0.39121333,-1.60949814
1314361946.06855178,0.48716596,0.39230779,-1.60660934
1314361946.11658263,0.48607206,0.39117920,-1.60679758
1314361946.16864467,0.48579797,0.39424992,-1.60870898
1314361946.20856690,0.48581201,0.39247224,-1.60869491
1314361946.26966524,0.48391306,0.38932154,-1.60891426
1314361946.31689882,0.48559797,0.39309791,-1.60764170
1314361946.36946392,0.48770228,0.39268392,-1.60671508
1314361946.41658425,0.48503822,0.38955662,-1.60831630
1314361946.46952438,0.48832035,0.39385432,-1.60989869
1314361946.51652694,0.48732248,0.39283419,-1.60847700
1314361946.57057190,0.48661861,0.39332840,-1.60651469
1314361946.61745119,0.48634356,0.39033818,-1.61145735
1314361946.67004275,0.48767030,0.39157358,-1.60965145
1314361946.71663165,0.48750019,0.39272258,-1.61007106
1314361946.76854968,0.48861930,0.39567053,-1.61377418
1314361946.81750250,0.48569176,0.39236847,-1.61070752
1314361946.86948180,0.48752284,0.39286965,-1.61194360
1314361946.92059445,0.48641375,0.39060292,-1.61252546
1314361946.96974277,0.48790500,0.39329988,-1.61687410
1314361947.01761651,0.48794523,0.39024934,-1.61658144
1314361947.06951427,0.48828894,0.39467028,-1.61485589
1314361947.11660004,0.48817495,0.39065954,-1.61951411
1314361947.17350721,0.48864126,0.39381376,-1.61817324
1314361947.21665335,0.49025556,0.39217648,-1.62101102
1314361947.26949906,0.48918816,0.39484641,-1.62028980
1314361947.32157969,0.48963791,0.39090380,-1.62010074
1314361947.36951160,0.49006331,0.39510474,-1.62157905
1314361947.41752577,0.49069381,0.39168388,-1.62285483
1314361947.46951270,0.48941582,0.39449629,-1.62335062
1314361947.51658487,0.48828745,0.39159933,-1.62433028
1314361947.56949592,0.49136302,0.39553162,-1.62712562
1314361947.61763453,0.48777181,0.39162418,-1.62609899
1314361947.66953683,0.49074185,0.39372787,-1.62407124
1314361947.71757960,0.49028423,0.39351267,-1.62717259
1314361947.76673436,0.49042520,0.39503172,-1.62690830
1314361947.81748843,0.48945087,0.39200309,-1.62761045
1314361947.87018299,0.49016869,0.39490482,-1.62665451
1314361947.91662121,0.49004829,0.39277250,-1.62891948
1314361947.96949911,0.49270928,0.39526644,-1.62744761
1314361948.01751900,0.48897871,0.39265355,-1.62857878
1314361948.06947756,0.49094135,0.39591885,-1.62728655
1314361948.11747909,0.49058160,0.39352956,-1.62902832
1314361948.16950917,0.49263039,0.39401367,-1.62891412
1314361948.21831107,0.49074012,0.39380202,-1.63089395
1314361948.26955914,0.49111751,0.39400795,-1.62686086
1314361948.32049942,0.49106342,0.39272586,-1.62565053
1314361948.36959052,0.49204934,0.39628401,-1.62695801
1314361948.41655707,0.48860610,0.39199251,-1.62578630
1314361948.46946979,0.49191809,0.39562598,-1.62468672
1314361948.52276015,0.49104106,0.39044797,-1.62630355
1314361948.56859088,0.48877990,0.39441741,-1.62713206
1314361948.62046790,0.49026692,0.39161417,-1.62769437
1314361948.66852498,0.49282855,0.39549720,-1.62543595
1314361948.72054791,0.49000993,0.39354053,-1.62946248
1314361948.76848078,0.49042723,0.39477775,-1.62690628
1314361948.82080483,0.49023554,0.39047912,-1.62835658
1314361948.86854148,0.48996407,0.39428544,-1.62786555
1314361948.91745448,0.49118963,0.39300448,-1.62805307
1314361948.96855450,0.49117407,0.39594814,-1.63021624
1314361949.01745319,0.48912966,0.39188856,-1.62843060
1314361949.06948137,0.49215680,0.39489341,-1.62761033
1314361949.11751294,0.49156672,0.39110434,-1.62881982
1314361949.16849613,0.49173170,0.39771482,-1.62979603
1314361949.22058392,0.49009922,0.39240700,-1.63038528
1314361949.26994824,0.49135581,0.39337763,-1.62751126
1314361949.30946875,0.48953617,0.39137745,-1.62853730
1314361949.36853743,0.49198240,0.39249325,-1.62853873
1314361949.41987681,0.49130121,0.39313450,-1.62844896
1314361949.46853614,0.49186701,0.39591393,-1.62776840
1314361949.52056265,0.49076390,0.39288536,-1.62834418
1314361949.56945682,0.49214265,0.39464253,-1.62787676
1314361949.62452698,0.48955140,0.39251560,-1.62814355
1314361949.66955566,0.48988733,0.39480725,-1.62907779
1314361949.70943666,0.49208894,0.39224389,-1.62906575
1314361949.76962113,0.48977712,0.39148271,-1.62678528
1314361949.81747341,0.49163446,0.39172530,-1.62761664
1314361949.86951113,0.49264419,0.39538109,-1.62624824
1314361949.92046905,0.48921564,0.39326674,-1.62683082
1314361949.96954513,0.49258402,0.39579755,-1.62946522
1314361950.01747990,0.49105978,0.39211723,-1.62805390
1314361950.06951308,0.49109319,0.39299834,-1.62738979
1314361950.10847855,0.49182382,0.39120653,-1.62679935
1314361950.16848040,0.48971149,0.39263636,-1.62773395
1314361950.21744800,0.49092814,0.39452675,-1.62767816
1314361950.26967573,0.49186242,0.39449558,-1.62575150
1314361950.32044983,0.49109212,0.39211103,-1.62751698
1314361950.36953545,0.49155438,0.39475888,-1.62630630
1314361950.42075753,0.48855552,0.39124149,-1.62671995
1314361950.46956944,0.49176353,0.39679664,-1.62711203
1314361950.51746345,0.49124521,0.39312062,-1.62711442
1314361950.56855273,0.48999134,0.39389986,-1.62745976
1314361950.62059712,0.49031988,0.39099473,-1.62915814
1314361950.66964483,0.49136996,0.39362851,-1.62724483
1314361950.72065735,0.48956403,0.39393243,-1.63002610
1314361950.76846576,0.49330506,0.39517328,-1.63115799
1314361950.81742144,0.49094203,0.39072052,-1.62791646
1314361950.86945891,0.49286777,0.39452460,-1.62943935
1314361950.91734481,0.48847917,0.39166105,-1.63020527
1314361950.96954751,0.49519330,0.39563891,-1.62918031
1314361951.00947928,0.49001789,0.39151046,-1.62958062
1314361951.06955695,0.49029312,0.39229232,-1.63171089
1314361951.12049389,0.49030325,0.39305109,-1.63144851
1314361951.16948056,0.49161589,0.39504990,-1.62978280
1314361951.21828341,0.49024266,0.39356983,-1.63239217
1314361951.26947308,0.49130678,0.39442590,-1.63046467
1314361951.32180858,0.49095711,0.39178112,-1.63207018
1314361951.36852670,0.49245319,0.39503729,-1.62946701
1314361951.41744828,0.49106377,0.39356032,-1.63234496
1314361951.46852756,0.49276108,0.39469641,-1.63345969
1314361951.50850081,0.49040571,0.39229536,-1.63210571
1314361951.56947970,0.49241349,0.39281195,-1.63493705
1314361951.62147474,0.49108395,0.39304930,-1.63207245
1314361951.66919398,0.49202088,0.39570475,-1.63203835
1314361951.72048020,0.49312514,0.39444700,-1.63423955
1314361951.76852131,0.49116069,0.39447847,-1.63515520
1314361951.81745911,0.49257961,0.39217082,-1.63452137
1314361951.86998105,0.49304897,0.39494410,-1.63317752
1314361951.92149115,0.49112329,0.39410529,-1.63582349
1314361951.96945667,0.49374700,0.39825457,-1.63476729
1314361952.02048087,0.49244979,0.39128357,-1.63452220
1314361952.06946564,0.49228427,0.39486524,-1.63683248
1314361952.11735797,0.49194229,0.39232117,-1.63603055
1314361952.16854310,0.49363622,0.39495474,-1.63474894
1314361952.22146010,0.49270180,0.39295736,-1.63692796
1314361952.26947331,0.49333325,0.39559746,-1.63517249
1314361952.32448363,0.49214435,0.39423349,-1.63696957
1314361952.36949539,0.49372154,0.39729437,-1.63984466
1314361952.41752982,0.49373087,0.39206976,-1.63806605
1314361952.46947122,0.49456328,0.39472058,-1.63750303
1314361952.50878143,0.49252465,0.39499524,-1.63735473
1314361952.56847668,0.49454254,0.39525631,-1.64004970
1314361952.61728382,0.49329418,0.39436167,-1.63824213
1314361952.66860843,0.49332803,0.39514050,-1.63985109
1314361952.70860481,0.49366069,0.39375603,-1.64129305
1314361952.76964641,0.49234626,0.39310300,-1.63828719
1314361952.81751704,0.49309161,0.39348835,-1.63945103
1314361952.86946058,0.49506581,0.39728317,-1.64016855
1314361952.91747808,0.49190533,0.39481097,-1.64314079
1314361952.96951294,0.49631554,0.39498329,-1.64007950
1314361953.01835012,0.49540937,0.39247337,-1.64185178
1314361953.06965375,0.49535099,0.39578098,-1.64241493
1314361953.12059116,0.49380356,0.39299256,-1.64127910
1314361953.16946578,0.49577928,0.39757243,-1.64414263
1314361953.22333097,0.49257037,0.39417282,-1.64349914
1314361953.26930285,0.49290478,0.39567944,-1.64228725
1314361953.32453847,0.49216574,0.39240143,-1.64364290
1314361953.36854029,0.49535093,0.39476669,-1.64254105
1314361953.41730332,0.49528819,0.39351085,-1.64373922
1314361953.46953297,0.49505416,0.39769036,-1.64258003
1314361953.52151656,0.49291733,0.39506772,-1.64442217
1314361953.56958103,0.49593410,0.39427099,-1.64424276
1314361953.62164855,0.49392661,0.39162359,-1.64393711
1314361953.66947532,0.49618563,0.39503276,-1.64450157
1314361953.70926380,0.49475148,0.39620224,-1.64552915
1314361953.76858878,0.49280673,0.39481071,-1.64402533
1314361953.80956364,0.49275520,0.39520094,-1.64483380
1314361953.86851478,0.49483675,0.39557660,-1.64645588
1314361953.91752267,0.49483520,0.39377728,-1.64443600
1314361953.96949458,0.49586204,0.39823973,-1.64721942
1314361954.02141547,0.49446356,0.39494029,-1.64593756
1314361954.06946611,0.49717441,0.39618143,-1.64605844
1314361954.11737347,0.49379137,0.39443874,-1.64583862
1314361954.16867852,0.49523264,0.39635998,-1.64884675
1314361954.21925926,0.49611229,0.39507139,-1.64798391
1314361954.26941347,0.49699208,0.39581138,-1.64686882
1314361954.32148623,0.49426353,0.39573929,-1.64916527
1314361954.36946368,0.49644715,0.39647576,-1.64904535
1314361954.42048287,0.49474865,0.39242381,-1.64831007
1314361954.46946430,0.49702144,0.39915138,-1.65050375
1314361954.52088761,0.49770030,0.39369270,-1.65122640
1314361954.56860924,0.49604261,0.39571866,-1.64906287
1314361954.61747813,0.49581528,0.39393798,-1.64852762
1314361954.66926026,0.49751377,0.39798993,-1.64926279
1314361954.71752238,0.49550772,0.39511329,-1.65122938
1314361954.76849318,0.49825144,0.39799112,-1.65241849
1314361954.81962681,0.49574748,0.39495915,-1.65133572
1314361954.86950779,0.49774784,0.39555496,-1.64975345
1314361954.91753650,0.49531344,0.39281249,-1.65201354
1314361954.96849966,0.49895912,0.39810556,-1.65197730
1314361955.01744485,0.49595359,0.39636388,-1.65227091
1314361955.06925488,0.49742445,0.39467990,-1.65070200
1314361955.11871719,0.49641612,0.39485201,-1.65383852
1314361955.16952467,0.49736485,0.39507174,-1.65164495
1314361955.21926546,0.49700111,0.39521897,-1.65313864
1314361955.26954150,0.49754363,0.39584765,-1.65311217
1314361955.31747794,0.49518028,0.39740336,-1.65366113
1314361955.36948800,0.49724665,0.39674300,-1.65340352
1314361955.41747451,0.49798089,0.39446744,-1.65508366
1314361955.46857262,0.49745667,0.39561066,-1.65458715
1314361955.52160907,0.49680853,0.39408985,-1.65421164
1314361955.56880474,0.49762052,0.40032074,-1.65581715
1314361955.62078786,0.49633825,0.39448649,-1.65517819
1314361955.66945195,0.49870080,0.39610133,-1.65425169
1314361955.71750593,0.49566343,0.39629260,-1.65710366
1314361955.76946664,0.49746722,0.39626735,-1.65659833
1314361955.81717968,0.49730903,0.39487803,-1.65713227
1314361955.87203693,0.49783611,0.39751413,-1.65484715
1314361955.92058802,0.49690545,0.39500824,-1.65702260
1314361955.96946001,0.49890932,0.39714980,-1.65745866
1314361956.02052641,0.49773580,0.39385566,-1.65696633
1314361956.06951976,0.49732739,0.39766449,-1.65648305
1314361956.11748648,0.49756962,0.39449692,-1.65738201
1314361956.16853142,0.49746221,0.39690238,-1.65660346
1314361956.21744728,0.49564686,0.39639798,-1.65509844
1314361956.26865625,0.49865797,0.39646536,-1.65265131
1314361956.32049513,0.49636960,0.39460731,-1.65464211
1314361956.37353611,0.49887919,0.39697951,-1.65344524
1314361956.42019033,0.49578530,0.39523014,-1.65294111
1314361956.46979737,0.49864754,0.39783773,-1.65038776
1314361956.51717138,0.49617791,0.39454553,-1.64876580
1314361956.56951809,0.49476567,0.39596468,-1.64939272
1314361956.61747050,0.49586132,0.39491275,-1.64718115
1314361956.66953111,0.49543661,0.39669561,-1.64721894
1314361956.72150755,0.49426365,0.39634275,-1.64862168
1314361956.76946354,0.49673527,0.39641494,-1.64607179
1314361956.82332158,0.49334022,0.39302537,-1.64624166
1314361956.86958122,0.49486855,0.39832988,-1.64512312
1314361956.91749191,0.49434501,0.39427352,-1.64525664
1314361956.96946549,0.49688730,0.39552274,-1.64592266
1314361957.02146411,0.49216253,0.39439964,-1.64297485
1314361957.06985760,0.49710512,0.39652020,-1.64444578
1314361957.12059212,0.49315950,0.39351800,-1.64465022
1314361957.17069888,0.49461228,0.39708617,-1.64726925
1314361957.22052503,0.49516237,0.39578655,-1.64508724
1314361957.26955509,0.49501085,0.39462498,-1.64321411
1314361957.31753874,0.49233720,0.39365453,-1.64469850
1314361957.36919641,0.49470380,0.39577588,-1.64364171
1314361957.41744637,0.49406618,0.39389721,-1.64540374
1314361957.46956992,0.49542719,0.39794099,-1.64495432
1314361957.52152824,0.49408039,0.39516264,-1.64501095
1314361957.56973505,0.49626949,0.39424977,-1.64501202
1314361957.61751628,0.49297816,0.39403537,-1.64533353
1314361957.66920257,0.49761736,0.39791560,-1.64482820
1314361957.70946980,0.49485010,0.39452893,-1.64589846
1314361957.76947665,0.49144870,0.39301822,-1.64367449
1314361957.81748009,0.49238089,0.39435783,-1.63934946
1314361957.86850905,0.49568614,0.39695448,-1.63623536
1314361957.92162776,0.49084657,0.39303878,-1.63327336
1314361957.96946836,0.49178785,0.39721584,-1.63298285
1314361958.02049565,0.48845056,0.39275146,-1.62778962
1314361958.06946158,0.49068075,0.39282063,-1.62471843
1314361958.12054586,0.48707274,0.39195892,-1.62358141
1314361958.16950512,0.49050477,0.39480954,-1.62059581
1314361958.21750045,0.48839140,0.39431295,-1.61950946
1314361958.26923347,0.48852682,0.39352614,-1.61735499
1314361958.32047415,0.48744813,0.39038989,-1.61980188
1314361958.36946058,0.48855609,0.39288646,-1.61694717
1314361958.42050910,0.48631588,0.39112136,-1.61585867
1314361958.46947145,0.48820418,0.39465541,-1.61577654
1314361958.51710868,0.48782274,0.39300597,-1.61551857
1314361958.56858921,0.48739859,0.39374959,-1.61340773
1314361958.62146592,0.48576379,0.38970900,-1.61387289
1314361958.66964030,0.48719358,0.39424685,-1.61221910
1314361958.72146511,0.48499829,0.39287823,-1.61260271
1314361958.76949120,0.48787341,0.39477170,-1.61445844
1314361958.82151318,0.48514926,0.39211306,-1.61245453
1314361958.86946011,0.48763406,0.39256316,-1.60963917
1314361958.92051601,0.48664692,0.39209715,-1.61250210
1314361958.96850228,0.48703793,0.39453030,-1.61477232
1314361959.01946163,0.48634240,0.39195478,-1.61077917
1314361959.06946445,0.48690760,0.39273056,-1.61262560
1314361959.11762571,0.48629087,0.39234510,-1.61158788
1314361959.16946602,0.48769414,0.39308354,-1.61084366
1314361959.22047639,0.48772043,0.39282489,-1.61043882
1314361959.26946616,0.48763353,0.39360240,-1.61178768
1314361959.32150292,0.48578170,0.39158320,-1.61107624
1314361959.36861610,0.48854789,0.39408237,-1.61013305
1314361959.41710496,0.48524633,0.39209449,-1.61084330
1314361959.46988153,0.48615712,0.39399469,-1.61134028
1314361959.52048016,0.48629758,0.39257285,-1.60918081
1314361959.56947303,0.48711753,0.39677313,-1.61090446
1314361959.61721802,0.48541656,0.39195970,-1.61029732
1314361959.66948318,0.48717344,0.39179197,-1.60832191
1314361959.72048712,0.48586723,0.39501548,-1.61149836
1314361959.76920772,0.48581520,0.39347905,-1.61028576
1314361959.81747317,0.48624805,0.39270914,-1.60998750
1314361959.86954069,0.48616922,0.39348513,-1.61120200
1314361959.91760898,0.48626354,0.39171624,-1.61211991
1314361959.96949863,0.48744610,0.39386731,-1.61260319
1314361960.02044153,0.48554575,0.39185739,-1.61269736
1314361960.06947589,0.48706180,0.39462793,-1.61209571
1314361960.12046266,0.48616755,0.39262232,-1.61360395
1314361960.16848183,0.48640403,0.39427492,-1.61400402
1314361960.22070146,0.48655242,0.39378849,-1.61613262
1314361960.26917076,0.48826677,0.39286798,-1.61495674
1314361960.32149649,0.48755103,0.39376962,-1.61540604
1314361960.36848235,0.48852435,0.39583391,-1.61937940
1314361960.42076206,0.48779842,0.39199609,-1.61604750
1314361960.46947050,0.48839101,0.39441523,-1.61723566
1314361960.51704955,0.48701292,0.39253062,-1.61770225
1314361960.56846881,0.48887077,0.39378777,-1.61840761
1314361960.62156200,0.48825607,0.39314827,-1.61736774
1314361960.66950512,0.48958147,0.39352119,-1.61796331
1314361960.72056723,0.48822117,0.39444774,-1.62005544
1314361960.76947546,0.48823783,0.39239088,-1.61776459
1314361960.82157588,0.48645222,0.39215904,-1.61799932
1314361960.86947727,0.48966280,0.39441794,-1.61876810
1314361960.92458797,0.49096376,0.39175195,-1.62014508
1314361960.96859336,0.48914605,0.39558434,-1.62041211
1314361961.02097368,0.48737246,0.39281389,-1.62076092
1314361961.06916809,0.48773158,0.39319944,-1.62154591
1314361961.12150669,0.48816442,0.39242953,-1.62124777
1314361961.16947603,0.49198264,0.39520249,-1.62318957
1314361961.22474122,0.48737285,0.39271161,-1.62303472
1314361961.26946974,0.48921660,0.39176637,-1.61971056
1314361961.31753993,0.49184221,0.39365834,-1.62117922
1314361961.36945701,0.49096015,0.39215767,-1.62242293
